Regional Weather Roundup
Issued by NWS

Home | Current Version | Previous Version | Graphics & Text | Print | Product List | Glossary On
Versions: 1 2 3 4 5 6 7 8 9 10 11 12 13 14 15 16 17 18 19 20 21 22 23 24 25 26 27
000
ASUS45 KPSR 271310
RWRAZ

ARIZONA HOURLY REGIONAL WEATHER ROUNDUP
NATIONAL WEATHER SERVICE PHOENIX AZ
600 AM MST THU APR 27 2017

NOTE: FAIR INDICATES FEW OR NO CLOUDS BELOW 12,000 FEET WITH NO
SIGNIFICANT WEATHER AND/OR OBSTRUCTIONS TO VISIBILITY.

AZZ001>003-036-271400-
NORTHWEST ARIZONA

CITY           SKY/WX    TMP DP  RH WIND       PRES   REMARKS
BULLHEAD CITY  MOCLDY    70  45  40 NE3       29.64S
KINGMAN        PTCLDY    55  39  54 SW9       29.75R
$$

AZZ004>008-015-016-018-271400-
NORTH CENTRAL ARIZONA

CITY           SKY/WX    TMP DP  RH WIND       PRES   REMARKS
GRAND CANYON   MOCLDY    43  32  65 SW8       29.83R
WILLIAMS       MOCLDY    48  32  53 SW12G21   29.85S
PRESCOTT       MOCLDY    57  33  40 W8        29.81R
FLAGSTAFF      PTCLDY    47  31  53 SW15G23   29.81S
PAYSON         MOCLDY    54  27  35 SW5       29.84S
PAGE           PTCLDY    54  37  52 CALM      29.70S
$$

AZZ009>014-017-271400-
NORTHEAST ARIZONA

CITY           SKY/WX    TMP DP  RH WIND       PRES   REMARKS
WINSLOW        MOCLDY    56  29  35 SW14      29.76R
SAINT JOHNS    PTCLDY    54  25  32 W18       29.75F
WINDOW ROCK    CLOUDY    49  24  37 SW15      29.79R
SHOW LOW       MOCLDY    48  25  40 S21G29    29.81F
$$

AZZ540-542>544-546-548-271400-
GREATER PHOENIX AREA

CITY           SKY/WX    TMP DP  RH WIND       PRES   REMARKS
PHOENIX        MOCLDY    69  37  30 E6        29.65S
BUCKEYE        MOCLDY    63  28  27 CALM      29.65F
GLENDALE       MOCLDY    68  36  30 CALM      29.66
LUKE AFB       MOCLDY    70  26  19 SE3       29.65S
DEER VALLEY    MOCLDY    65  30  27 VRB3      29.67S
SCOTTSDALE     MOCLDY    67  31  26 CALM      29.68F
MESA-FALCON    PTCLDY   N/A N/A N/A E9        29.67
MESA-GATEWAY   MOCLDY    64  32  29 E8        29.68F
CHANDLER       CLEAR     64  36  34 NE7       29.67
$$

AZZ539-553-271400-
SOUTHWEST MARICOPA COUNTY AND PINAL COUNTY

CITY           SKY/WX    TMP DP  RH WIND       PRES   REMARKS
CASA GRANDE    PTCLDY    64  24  21 SE6       29.69S
GILA BEND      FAIR      65  21  18 SE5       29.64F
$$

AZZ503-504-507>509-271400-
SOUTHEAST ARIZONA

CITY           SKY/WX    TMP DP  RH WIND       PRES   REMARKS
TUCSON         CLEAR     66  35  31 SE5       29.78S
DAVIS-MONTHAN  CLEAR     63  37  37 S3        29.77S
RYAN FIELD     CLEAR     64  32  29 SE3       29.76
NOGALES        PTCLDY    52  33  48 CALM      29.85S
SIERRA VISTA   PTCLDY    58  30  33 NW3       29.88R
DOUGLAS        PTCLDY    59  36  42 SW8       29.86R
SAFFORD        PTCLDY    57  23  26 CALM      29.75R
$$

AZZ532-271400-
SOUTHWEST ARIZONA

CITY           SKY/WX    TMP DP  RH WIND       PRES   REMARKS
YUMA           PTCLDY    66  45  46 CALM      29.65R
$$

CAZ041-043-047-048-061-525>527-560>570-271400-
SOUTHERN CALIFORNIA

CITY           SKY/WX    TMP DP  RH WIND       PRES   REMARKS
DOWNTOWN L.A.  PTCLDY    61  56  83 CALM      29.80S
L.A. AIRPORT   MOCLDY    57  55  93 CALM      29.81R
SAN DIEGO      MOCLDY    62  58  86 S6        29.82F
BURBANK        CLEAR     59  54  83 SE7       29.80R
ONTARIO        MOCLDY    56  52  86 W3        29.81S
RIVERSIDE      PTCLDY    56  53  90 CALM      29.81S
PALM SPRINGS   PTCLDY    70  49  47 CALM      29.66R
EL CENTRO NAS  PTCLDY    75  42  30 W10       29.63F
IMPERIAL       PTCLDY    71  47  42 W10       29.61S
BLYTHE         MOCLDY    64  42  44 N6        29.65R
NEEDLES        MOCLDY    72  43  35 SE3       29.65R
$$

NVZ020-UTZ003-271400-
SOUTHERN NEVADA-UTAH

CITY           SKY/WX    TMP DP  RH WIND       PRES   REMARKS
LAS VEGAS      PTCLDY    71  23  16 NW24G30   29.70R
SALT LAKE CITY MOCLDY    43  31  62 W13G24    29.81R
$$

NMZ009-TXZ055-271400-
NEW MEXICO-WEST TEXAS

CITY           SKY/WX    TMP DP  RH WIND       PRES   REMARKS
ALBUQUERQUE    CLOUDY    56  25  30 SW7       29.73S
EL PASO        MOCLDY    63  22  20 SE8       29.77R
$$


........................KEY........................
SKY/WX - SKY CONDITION/WEATHER
TMP    - TEMPERATURE IN FAHRENHEIT
DP     - DEW POINT IN FAHRENHEIT
RH     - RELATIVE HUMIDITY IN PERCENT
WIND   - DIRECTION AND SPEED IN MILES PER HOUR (MPH)
VRB    - VARIABLE WIND DIRECTION
PRES   - MEAN SEA LEVEL PRESSURE IN INCHES OF MERCURY
         F - FALLING PRESSURE   R - RISING PRESSURE
         S - STEADY PRESSURE
VSB    - VISIBILITY IN MILES
HX     - HEAT INDEX IN FAHRENHEIT
WCI    - WIND CHILL INDEX IN FAHRENHEIT
TC     - TEMPERATURE IN CELSIUS WHICH IS ALSO KNOWN AS
         TEMPERATURE IN CENTIGRADE
AFB    - AIR FORCE BASE
         LUKE AFB IS LUKE AIR FORCE BASE
         DAVIS-MONTHAN IS DAVIS-MONTHAN AIR FORCE BASE
NAS    - NAVAL AIR STATION
         EL CENTRO NAS IS EL CENTRO NAVAL AIR STATION
N/A    - NOT AVAILABLE





USA.gov is the U.S. government's official web portal to all federal, state and local government web resources and services.